Location: Newark
(42.1667°N, 14.5667°E)
Time: 11:34:46
(UTC+00:00)

Envisat - Pass Details

Date: 30 January 2020
Orbit: 764 x 766 km, 98.1° (Epoch: 23 February)

Event Time Altitude Azimuth Distance (km) Brightness Sun altitude
Rises 17:40:57 0° 194° (SSW) 3,218 6.5 -16.5°
Reaches altitude 10° 17:43:32 10° 205° (SSW) 2,297 5.9 -16.9°
Maximum altitude 17:47:53 29° 265° (W) 1,390 5.1 -17.7°
Drops below altitude 10° 17:52:16 10° 325° (NW) 2,311 5.8 -18.5°
Sets 17:54:54 0° 336° (NNW) 3,241 6.5 -19.0°
